sat.trackr.live / text

‹ back to catalog

STARLINK-11111 [DTC]

NORAD 59764 · 2024-091M

PAYLOAD ACTIVE UNKNOWN

§ Identity

Operator
Country
US
Launch date
2024-05-14
Launch site
AFWTR
Launch vehicle
Mass (kg)
RCS (m²)

Purposes: comms

External: N2YO · Heavens-Above · Gunter

§ Orbital elements

Epoch: 2026-05-25T02:53:40.166592Z

Period
91.41 min
Inclination
53.1533°
Eccentricity
0.0006300
Mean motion
15.75311711 rev/d
Perigee alt
339.5 km
Apogee alt
348.0 km
Semi-major
6,721.9 km
B*
4.8623e-4
RAAN
188.3053°
Arg perigee
35.4994°
Mean anomaly
324.6444°
Rev number
11,753

§ Raw data

STARLINK-11111 [DTC]1 59764U 24091M   26145.12060378  .00074869  00000+0  48623-3 0  99912 59764  53.1533 188.3053 0006300  35.4994 324.6444 15.75311711117530

JSON: /api/v1/satellites/59764 · /tle

For live sub-satellite position, see the globe view (requires WebGL).

§ Visibility from observer

Set your observer location to see the next 7 days of passes ≥ 10°. The values pass through the URL so the page stays shareable.

No JS? Fill the form by hand. The geolocation button needs JavaScript.